KI5QWQ Weather Reports


Display with metric or nautical units.
time (UTC)temp
F
wind
direction
speed
MPH
gust
MPH
rain 1hr
in
rain 24hr
in
rain mn
in
humidity
%
barometer
mb
20260507033201 0 15 4.0 7.0 0.00 0.00 0.00 1018.7
20260507032659 0 124 2.0 5.0 0.00 0.00 0.00 1018.7
20260507032154 0 112 1.0 7.0 0.00 0.00 0.00 1018.3
20260507031651 0 348 0.0 10.0 0.00 0.00 0.00 1017.9
20260507031148 0 34 2.0 4.0 0.00 0.00 0.00 1017.9
20260507030645 0 12 2.0 7.0 0.00 0.00 0.00 1017.8
20260507030143 0 11 3.0 7.0 0.00 0.00 0.00 1018.4
20260507025639 0 26 4.0 5.0 0.00 0.00 0.00 1018.5
20260507025136 0 6 2.0 5.0 0.00 0.00 0.00 1018.3
20260507024634 0 82 3.0 6.0 0.00 0.00 0.00 1018.2
20260507024131 0 6 3.0 4.0 0.00 0.00 0.00 1018.1
20260507023627 0 46 1.0 5.0 0.00 0.00 0.00 1017.9
20260507023124 0 62 0.0 4.0 0.00 0.00 0.00 1017.9
20260507022621 0 319 0.0 3.0 0.00 0.00 0.00 1017.4
20260507022116 0 58 0.0 3.0 0.00 0.00 0.00 1017.8
20260507021613 0 24 0.0 2.0 0.00 0.00 0.00 1017.8
20260507021109 0 7 3.0 5.0 0.00 0.00 0.00 1017.6
20260507020608 0 312 3.0 5.0 0.00 0.00 0.00 1016.8
20260507020103 0 76 0.0 3.0 0.00 0.00 0.00 1016.8
20260507015602 0 53 0.0 3.0 0.00 0.00 0.00 1016.8
20260507015059 0 43 2.0 8.0 0.00 0.00 0.00 1016.8
20260507014555 0 55 0.0 4.0 0.00 0.00 0.00 1016.8
20260507014051 0 89 2.0 5.0 0.00 0.00 0.00 1016.8
20260507013548 0 13 2.0 3.0 0.00 0.00 0.00 1016.8
20260507013045 0 0 3.0 6.0 0.00 0.00 0.00 1016.1
20260507012543 0 147 0.0 2.0 0.00 0.00 0.00 1016.1
20260507012038 0 26 0.0 5.0 0.00 0.00 0.00 1016.1
20260507011536 0 15 2.0 4.0 0.00 0.00 0.00 1016.1
20260507011032 0 76 0.0 5.0 0.00 0.00 0.00 1016.1
20260507010526 0 119 0.0 5.0 0.00 0.00 0.00 1016.1
20260507010023 0 39 0.0 3.0 0.00 0.00 0.00 1016.1
20260507005521 0 235 0.0 5.0 0.00 0.00 0.00 1016.1
20260507005017 0 288 1.0 4.0 0.00 0.00 0.00 1016.0
20260507004514 0 345 2.0 7.0 0.00 0.00 0.00 1016.1
20260507004012 0 15 0.0 3.0 0.00 0.00 0.00 1016.1
20260507003507 0 62 0.0 9.0 0.00 0.00 0.00 1016.1
20260507003002 0 13 0.0 3.0 0.00 0.00 0.00 1016.1
20260507002459 0 15 3.0 6.0 0.00 0.00 0.00 1016.0
20260507001955 0 79 0.0 3.0 0.00 0.00 0.00 1016.0
20260507001452 0 350 0.0 4.0 0.00 0.00 0.00 1016.0
20260507000949 0 134 1.0 8.0 0.00 0.00 0.00 1016.0
20260507000445 0 68 1.0 3.0 0.00 0.00 0.00 1015.9
20260506235941 0 196 0.0 3.0 0.00 0.00 0.00 1015.9
20260506235438 0 108 0.0 4.0 0.00 0.00 0.00 1015.9
20260506234933 0 250 0.0 3.0 0.00 0.00 0.00 1015.9
20260506234432 0 269 0.0 4.0 0.00 0.00 0.00 1015.9
20260506233929 0 353 4.0 6.0 0.00 0.00 0.00 1015.5
20260506233425 0 289 0.0 5.0 0.00 0.00 0.00 1015.8
20260506232922 0 308 0.0 7.0 0.00 0.00 0.00 1015.7
20260506232418 0 316 1.0 4.0 0.00 0.00 0.00 1015.8
20260506231914 0 319 2.0 5.0 0.00 0.00 0.00 1016.1
20260506231412 0 20 2.0 5.0 0.00 0.00 0.00 1016.1
20260506230909 0 246 0.0 5.0 0.00 0.00 0.00 1015.7
20260506230405 0 111 0.0 5.0 0.00 0.00 0.00 1015.7
20260506225902 0 357 3.0 5.0 0.00 0.00 0.00 1015.7
20260506225359 0 128 1.0 5.0 0.00 0.00 0.00 1015.9
20260506224856 0 209 0.0 4.0 0.00 0.00 0.00 1015.9
20260506224354 0 77 2.0 3.0 0.00 0.00 0.00 1015.6
20260506223850 0 24 1.0 5.0 0.00 0.00 0.00 1015.8
20260506223345 0 355 2.0 6.0 0.00 0.00 0.00 1015.5
20260506222842 0 344 1.0 6.0 0.00 0.00 0.00 1015.3
20260506222338 0 31 0.0 5.0 0.00 0.00 0.00 1015.6
20260506221836 0 326 1.0 8.0 0.00 0.00 0.00 1015.5
20260506221333 0 71 2.0 6.0 0.00 0.00 0.00 1015.4
20260506220831 0 289 4.0 5.0 0.00 0.00 0.00 1015.8
20260506220326 0 0 4.0 7.0 0.00 0.00 0.00 1015.8
20260506215823 0 320 3.0 6.0 0.00 0.00 0.00 1015.5
20260506215319 0 228 2.0 9.0 0.00 0.00 0.00 1015.6
20260506214815 0 338 3.0 9.0 0.00 0.00 0.00 1015.6
20260506214312 0 8 2.0 5.0 0.00 0.00 0.00 1015.6
20260506213810 0 11 2.0 4.0 0.00 0.00 0.00 1015.5
20260506213306 0 0 6.0 9.0 0.00 0.00 0.00 1015.6
20260506212804 0 66 2.0 9.0 0.00 0.00 0.00 1015.7
20260506212259 0 71 1.0 3.0 0.00 0.00 0.00 1015.8
20260506211754 0 319 1.0 8.0 0.00 0.00 0.00 1015.8
20260506211251 0 316 3.0 8.0 0.00 0.00 0.00 1015.7
20260506210748 0 114 2.0 9.0 0.00 0.00 0.00 1015.8
20260506210245 0 30 3.0 4.0 0.00 0.00 0.00 1015.8
20260506205742 0 246 0.0 6.0 0.00 0.00 0.00 1015.8
20260506205238 0 323 3.0 5.0 0.00 0.00 0.00 1015.8
20260506204735 0 242 0.0 5.0 0.00 0.00 0.00 1015.7
20260506204233 0 275 2.0 5.0 0.00 0.00 0.00 1016.0
20260506203731 0 67 4.0 9.0 0.00 0.00 0.00 1016.0
20260506203227 0 3 1.0 6.0 0.00 0.00 0.00 1015.9
20260506202725 0 346 3.0 5.0 0.00 0.00 0.00 1015.9
20260506202221 0 283 2.0 9.0 0.00 0.00 0.00 1015.7
20260506201718 0 354 3.0 7.0 0.00 0.00 0.00 1015.8
20260506201215 0 63 2.0 13.0 0.00 0.00 0.00 1015.7
20260506200712 0 10 3.0 9.0 0.00 0.00 0.00 1015.8
20260506200209 0 135 1.0 9.0 0.00 0.00 0.00 1015.7
20260506195705 0 55 5.0 11.0 0.00 0.00 0.00 1015.5
20260506195201 0 7 5.0 11.0 0.00 0.00 0.00 1015.5
20260506194659 0 11 3.0 5.0 0.00 0.00 0.00 1015.5
20260506194155 0 325 1.0 7.0 0.00 0.00 0.00 1015.5
20260506193653 0 117 2.0 7.0 0.00 0.00 0.00 1015.5
20260506193149 0 8 3.0 10.0 0.00 0.00 0.00 1015.5
20260506192646 0 44 2.0 6.0 0.00 0.00 0.00 1015.8
20260506192142 0 239 4.0 6.0 0.00 0.00 0.00 1015.9
20260506191640 0 3 0.0 4.0 0.00 0.00 0.00 1015.9
20260506191135 0 312 0.0 6.0 0.00 0.00 0.00 1015.9
20260506190633 0 89 0.0 7.0 0.00 0.00 0.00 1015.9
20260506190130 0 13 3.0 5.0 0.00 0.00 0.00 1015.9
20260506185627 0 300 2.0 7.0 0.00 0.00 0.00 1015.5
20260506185123 0 6 1.0 4.0 0.00 0.00 0.00 1015.5
20260506184620 0 338 0.0 4.0 0.00 0.00 0.00 1015.5
20260506184118 0 341 2.0 11.0 0.00 0.00 0.00 1015.6
20260506183614 0 318 2.0 10.0 0.00 0.00 0.00 1015.5
20260506183110 0 272 1.0 4.0 0.00 0.00 0.00 1015.4
20260506182608 0 77 0.0 3.0 0.00 0.00 0.00 1015.4
20260506182105 0 275 3.0 3.0 0.00 0.00 0.00 1015.3
20260506181603 0 310 3.0 5.0 0.00 0.00 0.00 1015.4
20260506181059 0 3 3.0 10.0 0.00 0.00 0.00 1017.1
20260506180556 0 183 1.0 5.0 0.00 0.00 0.00 1015.3
20260506180053 0 319 1.0 7.0 0.00 0.00 0.00 1015.2
20260506175549 0 40 2.0 5.0 0.00 0.00 0.00 1015.1
20260506175045 0 350 2.0 7.0 0.00 0.00 0.00 1015.1
20260506174544 0 209 0.0 4.0 0.00 0.00 0.00 1015.1
20260506174039 0 306 0.0 4.0 0.00 0.00 0.00 1014.9
20260506173538 0 304 2.0 5.0 0.00 0.00 0.00 1014.9
20260506173034 0 22 0.0 4.0 0.00 0.00 0.00 1014.9
20260506172532 0 235 0.0 3.0 0.00 0.00 0.00 1015.0
20260506172028 0 348 2.0 4.0 0.00 0.00 0.00 1015.2
20260506171525 0 144 3.0 5.0 0.00 0.00 0.00 1015.1
20260506171023 0 336 3.0 5.0 0.00 0.00 0.00 1014.7
20260506170520 0 178 3.0 5.0 0.00 0.00 0.00 1014.8
20260506170012 0 185 2.0 5.0 0.00 0.00 0.00 1015.0
20260506165510 0 40 4.0 5.0 0.00 0.00 0.00 1014.9
20260506165006 0 0 0.0 6.0 0.00 0.00 0.00 1015.1
20260506164503 0 343 3.0 5.0 0.00 0.00 0.00 1015.1
20260506164001 0 31 0.0 3.0 0.00 0.00 0.00 1015.5
20260506163456 0 13 3.0 7.0 0.00 0.00 0.00 1015.5
20260506162950 0 123 2.0 8.0 0.00 0.00 0.00 1015.7
20260506162449 0 351 1.0 6.0 0.00 0.00 0.00 1015.7
20260506161946 0 322 2.0 5.0 0.00 0.00 0.00 1015.1
20260506161444 0 292 1.0 5.0 0.00 0.00 0.00 1015.6
20260506160941 0 72 0.0 8.0 0.00 0.00 0.00 1016.3
20260506160438 0 21 2.0 9.0 0.00 0.00 0.00 1016.4
20260506155935 0 314 1.0 11.0 0.00 0.00 0.00 1016.7
20260506155432 0 117 1.0 11.0 0.00 0.00 0.00 1016.7
20260506153554 0 50 5.0 7.0 0.00 0.00 0.00 1016.7
20260506153052 0 335 3.0 8.0 0.00 0.00 0.00 1016.4
20260506152548 0 66 3.0 15.0 0.00 0.00 0.00 1015.9
20260506152046 0 296 3.0 9.0 0.00 0.00 0.00 1016.0
20260506151544 0 356 7.0 16.0 0.00 0.00 0.00 1016.0
20260506151041 0 351 3.0 9.0 0.00 0.00 0.00 1015.1
20260506150537 0 23 2.0 11.0 0.00 0.00 0.00 1015.1
20260506150035 0 8 3.0 9.0 0.00 0.00 0.00 1015.0
20260506145531 0 83 2.0 7.0 0.00 0.00 0.00 1015.0
20260506145029 0 76 3.0 14.0 0.00 0.00 0.00 1015.0
20260506144525 0 29 6.0 13.0 0.00 0.00 0.00 1014.5
20260506144023 0 54 5.0 11.0 0.00 0.00 0.00 1014.5
20260506143520 0 188 0.0 7.0 0.00 0.00 0.00 1014.6
20260506143019 0 33 2.0 7.0 0.00 0.00 0.00 1014.5
20260506142516 0 355 5.0 8.0 0.00 0.00 0.00 1013.5
20260506142014 0 73 0.0 6.0 0.00 0.00 0.00 1013.5
20260506141511 0 337 2.0 7.0 0.00 0.00 0.00 1013.5
20260506141010 0 333 3.0 4.0 0.00 0.00 0.00 1013.5
20260506140507 0 357 3.0 6.0 0.00 0.00 0.00 1013.5
20260506140004 0 103 2.0 6.0 0.00 0.00 0.00 1013.5
20260506135501 0 336 3.0 8.0 0.00 0.00 0.00 1013.5
20260506134956 0 322 0.0 3.0 0.00 0.00 0.00 1012.4
20260506134453 0 299 0.0 2.0 0.00 0.00 0.00 1012.4
20260506133949 0 147 0.0 1.0 0.00 0.00 0.00 1012.4
20260506133446 0 130 0.0 1.0 0.00 0.00 0.00 1012.4
20260506132943 0 186 1.0 2.0 0.00 0.00 0.00 1012.4
20260506132440 0 34 0.0 2.0 0.00 0.00 0.00 1012.4
20260506131938 0 147 0.0 2.0 0.00 0.00 0.00 1012.4
20260506131434 0 113 0.0 1.0 0.00 0.00 0.00 1012.4
20260506130931 0 330 1.0 2.0 0.00 0.00 0.00 1012.4
20260506130428 0 189 2.0 4.0 0.00 0.00 0.00 1012.4
20260506125926 0 135 2.0 3.0 0.00 0.00 0.00 1012.4
20260506125424 0 164 0.0 1.0 0.00 0.00 0.00 1012.5
20260506124922 0 62 0.0 2.0 0.00 0.00 0.00 1012.4
20260506124419 0 113 0.0 1.0 0.00 0.00 0.00 1012.3
20260506123917 0 142 0.0 1.0 0.00 0.00 0.00 1012.1
20260506123414 0 117 0.0 0.0 0.00 0.00 0.00 1012.2
20260506122912 0 170 0.0 1.0 0.00 0.00 0.00 1012.1
20260506122408 0 135 0.0 0.0 0.00 0.00 0.00 1012.2
20260506121907 0 135 0.0 0.0 0.00 0.00 0.00 1012.3
20260506121403 0 147 0.0 0.0 0.00 0.00 0.00 1012.2
20260506120900 0 322 0.0 1.0 0.00 0.00 0.00 1012.1
20260506120358 0 217 0.0 1.0 0.00 0.00 0.00 1012.1
20260506115855 0 202 0.0 1.0 0.00 0.00 0.00 1012.0
20260506115353 0 104 0.0 1.0 0.00 0.00 0.00 1012.0
20260506114851 0 124 0.0 2.0 0.00 0.00 0.00 1012.0
20260506114348 0 142 0.0 1.0 0.00 0.00 0.00 1012.0
20260506113847 0 117 0.0 1.0 0.00 0.00 0.00 1012.0
20260506113344 0 142 0.0 1.0 0.00 0.00 0.00 1011.9
20260506112840 0 117 0.0 1.0 0.00 0.00 0.00 1012.2
20260506112338 0 202 0.0 0.0 0.00 0.00 0.00 1012.0
20260506111835 0 202 0.0 1.0 0.00 0.00 0.00 1012.1
20260506111333 0 217 0.0 1.0 0.00 0.00 0.00 1012.0
20260506110831 0 218 0.0 1.0 0.00 0.00 0.00 1012.0
20260506110328 0 124 0.0 2.0 0.00 0.00 0.00 1012.0
20260506105825 0 142 0.0 1.0 0.00 0.00 0.00 1012.0
20260506105321 0 218 0.0 2.0 0.00 0.00 0.00 1012.0
20260506104818 0 199 0.0 2.0 0.00 0.00 0.00 1012.0
20260506104316 0 235 0.0 1.0 0.00 0.00 0.00 1012.0
20260506103813 0 205 0.0 1.0 0.00 0.00 0.00 1011.9
20260506103311 0 240 0.0 1.0 0.00 0.00 0.00 1011.8
20260506102808 0 203 0.0 2.0 0.00 0.00 0.00 1011.7
20260506102306 0 224 0.0 0.0 0.00 0.00 0.00 1011.7
20260506101803 0 185 0.0 1.0 0.00 0.00 0.00 1011.6
20260506101259 0 190 1.0 1.0 0.00 0.00 0.00 1011.5
20260506100757 0 203 0.0 2.0 0.00 0.00 0.00 1011.6
20260506100255 0 246 0.0 4.0 0.00 0.00 0.00 1011.5
20260506095753 0 173 0.0 1.0 0.00 0.00 0.00 1011.5
20260506095250 0 181 0.0 3.0 0.00 0.00 0.00 1011.5
20260506094746 0 230 0.0 3.0 0.00 0.00 0.00 1011.1
20260506094245 0 230 0.0 1.0 0.00 0.00 0.00 1011.1
20260506093743 0 178 0.0 3.0 0.00 0.00 0.00 1011.1
20260506093240 0 205 0.0 1.0 0.00 0.00 0.00 1011.1
20260506092737 0 174 0.0 3.0 0.00 0.00 0.00 1011.1
20260506092235 0 134 0.0 2.0 0.00 0.00 0.00 1011.0
20260506091732 0 229 0.0 1.0 0.00 0.00 0.00 1011.0
20260506091230 0 129 0.0 2.0 0.00 0.00 0.00 1011.0
20260506090727 0 187 0.0 3.0 0.00 0.00 0.00
20260506090224 0 164 0.0 1.0 0.00 0.00 0.00
20260506085721 0 50 0.0 1.0 0.00 0.00 0.00
20260506085217 0 185 0.0 2.0 0.00 0.00 0.00
20260506084714 0 181 1.0 2.0 0.00 0.00 0.00
20260506084210 0 142 0.0 0.0 0.00 0.00 0.00
20260506083707 0 111 0.0 3.0 0.00 0.00 0.00 1010.8
20260506083205 0 165 1.0 2.0 0.00 0.00 0.00 1010.8
20260506082702 0 163 0.0 3.0 0.00 0.00 0.00 1010.8
20260506082203 0 217 0.0 1.0 0.00 0.00 0.00 1010.8
20260506081701 0 169 0.0 3.0 0.00 0.00 0.00 1010.8
20260506081158 0 187 2.0 3.0 0.00 0.00 0.00 1010.8
20260506080656 0 218 1.0 2.0 0.00 0.00 0.00 1010.8
20260506080152 0 314 2.0 3.0 0.00 0.00 0.00 1010.8
20260506073136 0 198 1.0 3.0 0.00 0.00 0.00 1011.0
20260506072632 0 196 0.0 3.0 0.00 0.00 0.00 1011.1
20260506072131 0 130 2.0 5.0 0.00 0.00 0.00 1011.1
20260506071628 0 166 0.0 9.0 0.00 0.00 0.00 1011.2
20260506071126 0 146 4.0 7.0 0.00 0.00 0.00 1011.1
20260506070622 0 204 4.0 5.0 0.00 0.00 0.00 1011.1
20260506070119 0 197 2.0 4.0 0.00 0.00 0.00 1011.1
20260506062056 0 184 2.0 3.0 0.00 0.00 0.00 1010.8
20260506061552 0 194 1.0 3.0 0.00 0.00 0.00 1010.8
20260506061050 0 284 0.0 3.0 0.00 0.00 0.00 1010.8
20260506060548 0 204 1.0 6.0 0.00 0.00 0.00 1010.8
20260506051017 0 223 1.0 5.0 0.00 0.00 0.00 1011.0
20260506050515 0 203 2.0 5.0 0.00 0.00 0.00 1011.0
20260506045006 0 123 2.0 3.0 0.00 0.00 0.00 1010.7
20260506044503 0 54 2.0 3.0 0.00 0.00 0.00 1010.7
20260506044000 0 147 5.0 6.0 0.00 0.00 0.00 1010.8
20260506043457 0 206 0.0 3.0 0.00 0.00 0.00 1010.8
20260506042954 0 184 2.0 5.0 0.00 0.00 0.00 1010.8
20260506042449 0 186 1.0 3.0 0.00 0.00 0.00
20260506041946 0 131 3.0 6.0 0.00 0.00 0.00 1010.3
20260506041444 0 34 0.0 4.0 0.00 0.00 0.00 1010.3
20260506040941 0 209 2.0 3.0 0.00 0.00 0.00 1010.3
20260506040438 0 209 2.0 2.0 0.00 0.00 0.00 1010.3
20260506035934 0 181 2.0 7.0 0.00 0.00 0.00 1010.3
20260506035432 0 146 2.0 3.0 0.00 0.00 0.00 1010.3
20260506034928 0 136 3.0 6.0 0.00 0.00 0.00 1010.3
20260506034426 0 187 2.0 7.0 0.00 0.00 0.00 1010.3
20260506033923 0 206 1.0 7.0 0.00 0.00 0.00 1010.3